FW7106 Weather Reports


Display with metric or nautical units.
time (UTC)temp
F
wind
direction
speed
MPH
gust
MPH
rain 1hr
in
rain 24hr
in
rain mn
in
humidity
%
barometer
mb
20210614155908 93 272 2.0 3.0 0.00 0.00 0.00 62 1014.6
20210614155406 95 325 1.0 1.0 0.00 0.00 0.00 63 1014.7
20210614154858 93 328 1.0 1.0 0.00 0.00 0.00 64 1014.7
20210614154357 93 336 2.0 2.0 0.00 0.00 0.00 67 1014.6
20210614153853 93 238 1.0 2.0 0.00 0.00 0.00 62 1014.8
20210614153348 90 30 0.0 1.0 0.00 0.00 0.00 69 1014.6
20210614152832 90 278 2.0 2.0 0.00 0.00 0.00 68 1014.4
20210614152332 90 329 0.0 1.0 0.00 0.00 0.00 70 1014.5
20210614151833 88 325 1.0 1.0 0.00 0.00 0.00 70 1014.8
20210614151325 90 245 5.0 6.0 0.00 0.00 0.00 67 1014.7
20210614150824 89 334 0.0 1.0 0.00 0.00 0.00 69 1014.7
20210614150319 88 339 1.0 1.0 0.00 0.00 0.00 69 1014.7
20210614145812 90 9 0.0 1.0 0.00 0.00 0.00 71 1015.0
20210614145306 89 225 3.0 3.0 0.00 0.00 0.00 70 1014.8
20210614144805 88 229 3.0 3.0 0.00 0.00 0.00 73 1015.1
20210614144304 87 315 1.0 1.0 0.00 0.00 0.00 73 1014.9
20210614143802 88 269 2.0 2.0 0.00 0.00 0.00 71 1014.8
20210614143258 87 358 0.0 0.0 0.00 0.00 0.00 72 1015.0
20210614142753 87 271 3.0 3.0 0.00 0.00 0.00 73 1014.8
20210614142252 87 224 1.0 1.0 0.00 0.00 0.00 73 1014.8
20210614141750 88 20 0.0 0.0 0.00 0.00 0.00 71 1014.9
20210614141245 86 259 0.0 1.0 0.00 0.00 0.00 75 1014.8
20210614140741 86 238 3.0 3.0 0.00 0.00 0.00 77 1014.7
20210614140237 86 231 3.0 3.0 0.00 0.00 0.00 78 1014.7
20210614135727 85 221 2.0 2.0 0.00 0.00 0.00 79 1014.7
20210614135225 84 332 1.0 1.0 0.00 0.00 0.00 82 1014.6
20210614134721 83 273 0.0 1.0 0.00 0.00 0.00 82 1014.5
20210614134216 82 181 2.0 2.0 0.00 0.00 0.00 83 1014.7
20210614133714 82 247 3.0 5.0 0.00 0.00 0.00 82 1014.5
20210614133211 82 261 3.0 3.0 0.00 0.00 0.00 83 1014.6
20210614132702 82 261 2.0 2.0 0.00 0.00 0.00 85 1014.4
20210614132158 82 239 2.0 2.0 0.00 0.00 0.00 85 1014.3
20210614131655 82 242 1.0 2.0 0.00 0.00 0.00 85 1014.0
20210614131152 82 220 0.0 1.0 0.00 0.00 0.00 85 1014.3
20210614130645 81 267 1.0 2.0 0.00 0.00 0.00 86 1014.4
20210614130139 82 228 0.0 0.0 0.00 0.00 0.00 84 1014.2
20210614125629 81 227 0.0 1.0 0.00 0.00 0.00 85 1014.2
20210614125126 80 226 0.0 0.0 0.00 0.00 0.00 89 1014.1
20210614124625 80 226 0.0 1.0 0.00 0.00 0.00 89 1014.2
20210614124117 79 226 0.0 0.0 0.00 0.00 0.00 91 1014.1
20210614123616 77 225 0.0 1.0 0.00 0.00 0.00 94 1014.0
20210614123115 77 225 0.0 0.0 0.00 0.00 0.00 95 1014.1
20210614122609 76 225 1.0 1.0 0.00 0.00 0.00 96 1013.8
20210614122105 76 226 0.0 0.0 0.00 0.00 0.00 97 1013.6
20210614121604 76 226 0.0 0.0 0.00 0.00 0.00 97 1013.6
20210614121102 76 226 0.0 0.0 0.00 0.00 0.00 97 1013.4
20210614120559 76 226 1.0 1.0 0.00 0.00 0.00 96 1013.6
20210614120053 76 226 0.0 0.0 0.00 0.00 0.00 97 1013.6
20210614115551 76 226 0.0 0.0 0.00 0.00 0.00 96 1013.5
20210614115049 76 226 0.0 0.0 0.00 0.00 0.00 96 1013.3
20210614114544 76 226 0.0 0.0 0.00 0.00 0.00 96 1013.6
20210614114020 76 226 0.0 0.0 0.00 0.00 0.00 96 1013.2
20210614113501 76 226 0.0 0.0 0.00 0.00 0.00 96 1013.1
20210614112959 75 226 0.0 0.0 0.00 0.00 0.00 96 1013.0
20210614112500 76 226 0.0 0.0 0.00 0.00 0.00 96 1012.8
20210614111953 76 226 0.0 0.0 0.00 0.00 0.00 96 1012.8
20210614111453 76 226 0.0 0.0 0.00 0.00 0.00 97 1012.6
20210614110952 76 225 0.0 0.0 0.00 0.00 0.00 97 1012.7
20210614110446 75 225 0.0 1.0 0.00 0.00 0.00 97 1012.1
20210614105942 76 226 0.0 0.0 0.00 0.00 0.00 97 1012.2
20210614105438 76 226 0.0 0.0 0.00 0.00 0.00 97 1012.4
20210614104933 76 226 0.0 0.0 0.00 0.00 0.00 96 1012.2
20210614104427 76 226 0.0 0.0 0.00 0.00 0.00 96 1012.1
20210614103926 76 226 0.0 0.0 0.00 0.00 0.00 96 1012.0
20210614103420 76 226 0.0 0.0 0.00 0.00 0.00 96 1011.9
20210614102919 76 226 0.0 0.0 0.00 0.00 0.00 96 1012.1
20210614102415 76 226 0.0 0.0 0.00 0.00 0.00 96 1012.0
20210614101913 77 226 0.0 1.0 0.00 0.00 0.00 95 1012.1
20210614101408 77 256 1.0 1.0 0.00 0.00 0.00 95 1012.1
20210614100906 77 268 0.0 0.0 0.00 0.00 0.00 95 1012.3
20210614100358 77 267 0.0 1.0 0.00 0.00 0.00 95 1012.0
20210614095854 77 269 1.0 1.0 0.00 0.00 0.00 95 1012.3
20210614095347 77 259 2.0 2.0 0.00 0.00 0.00 95 1012.5
20210614094842 77 223 1.0 1.0 0.00 0.00 0.00 95 1012.5
20210614094337 77 222 1.0 1.0 0.00 0.00 0.00 94 1012.5
20210614093835 77 205 1.0 1.0 0.00 0.00 0.00 94 1012.5
20210614093333 77 203 1.0 1.0 0.00 0.00 0.00 94 1012.7
20210614092829 77 200 0.0 0.0 0.00 0.00 0.00 94 1012.5
20210614092324 77 194 1.0 1.0 0.00 0.00 0.00 95 1012.8
20210614091815 77 194 0.0 0.0 0.00 0.00 0.00 94 1012.9
20210614091312 77 193 0.0 0.0 0.00 0.00 0.00 94 1012.4
20210614090812 77 194 0.0 0.0 0.00 0.00 0.00 94 1012.6
20210614090309 77 232 2.0 2.0 0.00 0.00 0.00 95 1012.4
20210614085756 77 201 3.0 5.0 0.00 0.00 0.00 96 1011.9
20210614085255 76 224 3.0 3.0 0.00 0.00 0.00 96 1012.2
20210614084753 77 154 1.0 1.0 0.00 0.00 0.00 95 1012.5
20210614084246 77 152 0.0 0.0 0.00 0.00 0.00 94 1012.9
20210614083743 78 151 0.0 1.0 0.00 0.00 0.00 93 1012.9
20210614083240 77 151 0.0 1.0 0.00 0.00 0.00 95 1013.1
20210614082734 77 151 0.0 0.0 0.00 0.00 0.00 95 1013.3
20210614082231 77 151 0.0 0.0 0.00 0.00 0.00 95 1013.3
20210614081730 77 151 0.0 0.0 0.00 0.00 0.00 95 1013.4
20210614081224 77 151 0.0 0.0 0.00 0.00 0.00 95 1013.2
20210614080721 77 151 0.0 0.0 0.00 0.00 0.00 94 1013.3
20210614080215 77 151 0.0 0.0 0.00 0.00 0.00 94 1013.0
20210614075710 77 151 0.0 0.0 0.00 0.00 0.00 94 1013.1
20210614075207 77 151 0.0 0.0 0.00 0.00 0.00 93 1013.2
20210614074705 78 151 0.0 0.0 0.00 0.00 0.00 92 1012.9
20210614074205 78 151 0.0 0.0 0.00 0.00 0.00 92 1013.0
20210614073702 78 151 0.0 0.0 0.00 0.00 0.00 91 1013.1
20210614073201 78 153 1.0 1.0 0.00 0.00 0.00 91 1012.8
20210614072658 78 151 0.0 0.0 0.00 0.00 0.00 93 1013.2
20210614072157 78 150 0.0 0.0 0.00 0.00 0.00 93 1013.2
20210614071638 77 152 1.0 1.0 0.00 0.00 0.00 94 1013.3
20210614071134 77 150 0.0 1.0 0.00 0.00 0.00 96 1013.6
20210614070631 78 150 0.0 0.0 0.00 0.00 0.00 96 1013.5
20210614070127 78 150 0.0 0.0 0.00 0.00 0.00 96 1013.5
20210614065624 78 149 0.0 0.0 0.00 0.00 0.00 96 1013.4
20210614065120 78 150 0.0 0.0 0.00 0.00 0.00 96 1013.6
20210614064615 78 150 0.0 0.0 0.00 0.00 0.00 96 1013.8
20210614064110 78 150 0.0 0.0 0.00 0.00 0.00 96 1013.6
20210614063602 78 151 0.0 0.0 0.00 0.00 0.00 96 1013.6
20210614063058 78 151 0.0 0.0 0.00 0.00 0.00 96 1013.6
20210614062551 78 151 0.0 0.0 0.00 0.00 0.00 96 1013.5
20210614062050 78 144 0.0 0.0 0.00 0.00 0.00 96 1013.7
20210614061544 78 144 0.0 0.0 0.00 0.00 0.00 96 1013.7
20210614061035 78 144 0.0 0.0 0.00 0.00 0.00 95 1013.8
20210614060533 78 144 0.0 0.0 0.00 0.00 0.00 95 1013.6
20210614060021 78 144 0.0 0.0 0.00 0.00 0.00 94 1013.7
20210614055521 78 144 0.0 0.0 0.00 0.00 0.00 94 1013.6
20210614055018 79 16 0.0 0.0 0.00 0.00 0.00 93 1014.0
20210614054515 79 15 0.0 0.0 0.00 0.00 0.00 93 1013.7
20210614054008 78 17 0.0 0.0 0.00 0.00 0.00 94 1013.6
20210614053508 78 17 0.0 0.0 0.00 0.00 0.00 94 1013.6
20210614053000 79 17 0.0 0.0 0.00 0.00 0.00 94 1013.5
20210614052458 79 17 0.0 0.0 0.00 0.00 0.00 94 1013.4
20210614051954 79 17 0.0 0.0 0.00 0.00 0.00 93 1013.3
20210614051452 79 17 0.0 0.0 0.00 0.00 0.00 93 1013.2
20210614050952 79 17 0.0 0.0 0.00 0.00 0.00 93 1013.2
20210614050449 79 17 0.0 0.0 0.00 0.00 0.00 93 1013.2
20210614045945 79 17 0.0 0.0 0.00 0.00 0.00 92 1013.2
20210614045442 79 17 0.0 0.0 0.00 0.00 0.00 92 1012.9
20210614044935 79 17 0.0 0.0 0.00 0.00 0.00 93 1012.9
20210614044432 79 17 0.0 0.0 0.00 0.00 0.00 93 1013.0
20210614043905 80 17 0.0 0.0 0.00 0.00 0.00 94 1012.9
20210614043402 80 17 0.0 0.0 0.00 0.00 0.00 93 1012.8
20210614042856 80 17 0.0 0.0 0.00 0.00 0.00 93 1012.7
20210614042350 80 17 0.0 0.0 0.00 0.00 0.00 93 1012.7
20210614041846 80 17 0.0 0.0 0.00 0.00 0.00 93 1012.8
20210614041326 80 17 0.0 0.0 0.00 0.00 0.00 93 1012.7
20210614040822 80 17 0.0 0.0 0.00 0.00 0.00 92 1012.5
20210614040318 80 17 0.0 0.0 0.00 0.00 0.00 91 1012.6
20210614035802 80 17 0.0 0.0 0.00 0.00 0.00 91 1012.7
20210614035256 81 17 0.0 0.0 0.00 0.00 0.00 91 1012.6
20210614034749 81 17 0.0 0.0 0.00 0.00 0.00 91 1012.5
20210614034247 81 17 0.0 0.0 0.00 0.00 0.00 92 1012.4
20210614033745 81 17 0.0 0.0 0.00 0.00 0.00 92 1012.4
20210614033242 81 17 0.0 0.0 0.00 0.00 0.00 92 1012.5
20210614032738 81 17 0.0 0.0 0.00 0.00 0.00 92 1012.3
20210614032234 81 17 0.0 0.0 0.00 0.00 0.00 92 1012.1
20210614031731 81 17 0.0 0.0 0.00 0.00 0.00 91 1012.1
20210614031224 81 17 0.0 0.0 0.00 0.00 0.00 91 1012.0
20210614030722 82 17 0.0 0.0 0.00 0.00 0.00 91 1011.9
20210614030221 82 17 0.0 0.0 0.00 0.00 0.00 91 1012.0
20210614025716 82 17 0.0 0.0 0.00 0.00 0.00 90 1012.1
20210614025212 82 17 0.0 0.0 0.00 0.00 0.00 89 1011.8
20210614024709 82 17 0.0 0.0 0.00 0.00 0.00 89 1012.0
20210614024208 82 17 0.0 0.0 0.00 0.00 0.00 89 1012.0
20210614023704 82 17 0.0 0.0 0.00 0.00 0.00 90 1011.9
20210614023153 82 17 0.0 0.0 0.00 0.00 0.00 90 1012.0
20210614022649 83 17 0.0 0.0 0.00 0.00 0.00 89 1012.0
20210614022149 83 17 0.0 0.0 0.00 0.00 0.00 89 1011.9
20210614021644 83 17 0.0 0.0 0.00 0.00 0.00 88 1012.0
20210614021142 83 17 0.0 0.0 0.00 0.00 0.00 87 1011.7
20210614020638 84 17 0.0 0.0 0.00 0.00 0.00 86 1011.8
20210614020136 84 17 0.0 0.0 0.00 0.00 0.00 87 1011.9
20210614015633 84 17 0.0 0.0 0.00 0.00 0.00 85 1011.9
20210614015132 85 17 0.0 0.0 0.00 0.00 0.00 84 1011.7
20210614014627 85 17 0.0 0.0 0.00 0.00 0.00 83 1011.7
20210614014125 86 17 0.0 0.0 0.00 0.00 0.00 83 1011.7
20210614013621 86 17 0.0 0.0 0.00 0.00 0.00 79 1011.8
20210614013113 87 17 0.0 0.0 0.00 0.00 0.00 78 1011.8
20210614012611 87 17 0.0 0.0 0.00 0.00 0.00 76 1011.6
20210614012109 87 17 0.0 0.0 0.00 0.00 0.00 74 1011.7
20210614011559 88 17 0.0 0.0 0.00 0.00 0.00 75 1011.5
20210614011049 89 17 0.0 0.0 0.00 0.00 0.00 73 1011.4
20210614010548 90 17 0.0 0.0 0.00 0.00 0.00 69 1011.6
20210614010044 90 17 0.0 0.0 0.00 0.00 0.00 68 1011.6
20210614005541 90 17 0.0 0.0 0.00 0.00 0.00 68 1011.5
20210614005035 91 7 0.0 0.0 0.00 0.00 0.00 67 1011.6
20210614004532 92 14 0.0 0.0 0.00 0.00 0.00 66 1011.6
20210614004023 93 17 0.0 0.0 0.00 0.00 0.00 61 1011.5
20210614003521 93 18 0.0 0.0 0.00 0.00 0.00 59 1011.5
20210614003016 94 18 0.0 0.0 0.00 0.00 0.00 58 1011.6
20210614002516 94 18 0.0 0.0 0.00 0.00 0.00 57 1011.3
20210614002012 93 21 0.0 0.0 0.00 0.00 0.00 59 1011.3
20210614001507 94 29 0.0 0.0 0.00 0.00 0.00 57 1011.3
20210614001006 95 22 0.0 0.0 0.00 0.00 0.00 55 1011.4
20210614000506 96 23 0.0 0.0 0.00 0.00 0.00 53 1011.2
20210614000003 96 24 0.0 0.0 0.00 0.00 0.00 53 1011.5
20210613235458 95 29 0.0 0.0 0.00 0.00 0.00 53 1011.2
20210613234954 96 30 0.0 0.0 0.00 0.00 0.00 52 1011.4
20210613234451 96 31 0.0 0.0 0.00 0.00 0.00 54 1011.3
20210613233946 95 31 0.0 0.0 0.00 0.00 0.00 55 1011.2
20210613233443 96 9 0.0 0.0 0.00 0.00 0.00 51 1011.3
20210613232937 96 21 0.0 0.0 0.00 0.00 0.00 55 1011.2
20210613232420 95 21 0.0 0.0 0.00 0.00 0.00 55 1011.1
20210613231920 96 19 1.0 1.0 0.00 0.00 0.00 51 1011.1
20210613231418 97 337 0.0 0.0 0.00 0.00 0.00 51 1011.3
20210613230909 97 337 0.0 0.0 0.00 0.00 0.00 49 1011.4
20210613230404 97 8 0.0 0.0 0.00 0.00 0.00 53 1011.1
20210613225902 98 331 0.0 0.0 0.00 0.00 0.00 50 1011.3
20210613225355 98 349 0.0 1.0 0.00 0.00 0.00 49 1011.3
20210613224851 97 333 0.0 0.0 0.00 0.00 0.00 52 1011.2
20210613224348 98 330 0.0 0.0 0.00 0.00 0.00 49 1011.4
20210613223840 98 359 0.0 0.0 0.00 0.00 0.00 51 1011.4
20210613223335 97 305 0.0 0.0 0.00 0.00 0.00 49 1011.4
20210613222834 96 339 0.0 0.0 0.00 0.00 0.00 50 1011.5
20210613222331 97 257 1.0 2.0 0.00 0.00 0.00 50 1011.5
20210613221830 97 14 1.0 2.0 0.00 0.00 0.00 47 1011.4
20210613221319 97 291 1.0 1.0 0.00 0.00 0.00 50 1011.5
20210613220816 98 243 1.0 1.0 0.00 0.00 0.00 46 1011.7
20210613220311 99 294 0.0 1.0 0.00 0.00 0.00 48 1011.6
20210613215808 99 2 0.0 0.0 0.00 0.00 0.00 49 1011.9
20210613215305 99 353 0.0 1.0 0.00 0.00 0.00 46 1011.8
20210613214802 98 340 0.0 0.0 0.00 0.00 0.00 51 1011.9
20210613214255 96 300 1.0 2.0 0.00 0.00 0.00 47 1011.8
20210613213754 97 250 3.0 3.0 0.00 0.00 0.00 49 1012.0
20210613213251 98 348 0.0 0.0 0.00 0.00 0.00 52 1012.0
20210613212745 98 264 2.0 3.0 0.00 0.00 0.00 50 1012.2
20210613212242 99 352 0.0 0.0 0.00 0.00 0.00 49 1012.1
20210613211736 98 10 0.0 0.0 0.00 0.00 0.00 52 1012.3
20210613211235 98 237 3.0 3.0 0.00 0.00 0.00 48 1012.4
20210613210730 98 312 0.0 1.0 0.00 0.00 0.00 50 1012.7
20210613210228 96 17 0.0 0.0 0.00 0.00 0.00 55 1012.5
20210613205712 95 265 2.0 2.0 0.00 0.00 0.00 53 1012.3
20210613205208 97 269 3.0 5.0 0.00 0.00 0.00 52 1012.4
20210613204700 97 317 1.0 2.0 0.00 0.00 0.00 54 1012.6
20210613204156 98 315 1.0 2.0 0.00 0.00 0.00 50 1012.7
20210613203632 99 290 2.0 3.0 0.00 0.00 0.00 50 1012.8
20210613203128 98 321 0.0 1.0 0.00 0.00 0.00 53 1012.8
20210613202623 95 338 1.0 1.0 0.00 0.00 0.00 55 1012.6
20210613202115 99 241 5.0 6.0 0.00 0.00 0.00 51 1013.1
20210613201612 97 338 0.0 0.0 0.00 0.00 0.00 53 1012.9
20210613201111 97 280 4.0 6.0 0.00 0.00 0.00 54 1013.0
20210613200608 97 296 1.0 1.0 0.00 0.00 0.00 54 1013.2
20210613200103 98 195 2.0 2.0 0.00 0.00 0.00 50 1013.3
20210613195600 96 290 0.0 1.0 0.00 0.00 0.00 52 1013.2
20210613195054 94 194 1.0 1.0 0.00 0.00 0.00 54 1013.2
20210613194551 98 239 1.0 1.0 0.00 0.00 0.00 56 1013.2
20210613194040 99 286 1.0 1.0 0.00 0.00 0.00 51 1013.4
20210613193538 98 1 0.0 0.0 0.00 0.00 0.00 52 1013.5
20210613193033 98 343 0.0 0.0 0.00 0.00 0.00 49 1013.7
20210613192517 95 249 1.0 1.0 0.00 0.00 0.00 56 1013.6
20210613192014 94 239 5.0 6.0 0.00 0.00 0.00 55 1013.6
20210613191511 97 231 5.0 7.0 0.00 0.00 0.00 54 1013.7
20210613191000 96 267 2.0 2.0 0.00 0.00 0.00 53 1014.2
20210613190500 96 257 1.0 1.0 0.00 0.00 0.00 53 1014.3
20210613185957 94 274 3.0 3.0 0.00 0.00 0.00 57 1014.1
20210613185449 94 250 5.0 6.0 0.00 0.00 0.00 55 1014.2
20210613184946 97 242 5.0 7.0 0.00 0.00 0.00 53 1014.1
20210613184443 94 10 3.0 5.0 0.00 0.00 0.00 59 1014.2
20210613183939 94 311 2.0 2.0 0.00 0.00 0.00 57 1014.3
20210613183432 95 224 2.0 2.0 0.00 0.00 0.00 56 1014.3
20210613182931 97 331 1.0 1.0 0.00 0.00 0.00 59 1014.5
20210613182428 101 333 0.0 1.0 0.00 0.00 0.00 51 1014.6
20210613181928 100 340 1.0 1.0 0.00 0.00 0.00 49 1014.5
20210613181427 98 341 0.0 0.0 0.00 0.00 0.00 54 1014.6
20210613180922 97 354 1.0 1.0 0.00 0.00 0.00 52 1014.7
20210613180419 95 286 2.0 3.0 0.00 0.00 0.00 58 1014.7
20210613175915 95 229 2.0 2.0 0.00 0.00 0.00 55 1014.5
20210613175413 96 274 2.0 2.0 0.00 0.00 0.00 55 1014.4
20210613174912 98 184 1.0 1.0 0.00 0.00 0.00 50 1014.7
20210613174404 97 345 0.0 0.0 0.00 0.00 0.00 51 1014.5
20210613173902 96 358 0.0 0.0 0.00 0.00 0.00 50 1014.6
20210613173356 96 217 3.0 3.0 0.00 0.00 0.00 56 1014.7
20210613172854 95 327 1.0 2.0 0.00 0.00 0.00 55 1014.6
20210613172345 95 250 2.0 2.0 0.00 0.00 0.00 57 1014.8
20210613171842 96 137 1.0 1.0 0.00 0.00 0.00 53 1014.8
20210613171339 94 39 0.0 0.0 0.00 0.00 0.00 60 1014.8
20210613170832 95 271 3.0 3.0 0.00 0.00 0.00 58 1014.8
20210613170329 93 3 0.0 1.0 0.00 0.00 0.00 61 1015.0
20210613165822 92 277 1.0 1.0 0.00 0.00 0.00 61 1015.0
20210613165315 96 289 0.0 1.0 0.00 0.00 0.00 62 1014.9
20210613164814 94 1 1.0 1.0 0.00 0.00 0.00 62 1015.1
20210613164309 92 36 0.0 0.0 0.00 0.00 0.00 64 1015.2
20210613163808 93 355 0.0 0.0 0.00 0.00 0.00 64 1015.1
20210613163302 94 261 3.0 3.0 0.00 0.00 0.00 63 1015.0
20210613162756 93 327 0.0 1.0 0.00 0.00 0.00 63 1015.1
20210613162253 96 28 0.0 0.0 0.00 0.00 0.00 60 1015.0
20210613161752 95 14 0.0 1.0 0.00 0.00 0.00 61 1014.9
20210613161247 93 33 1.0 1.0 0.00 0.00 0.00 62 1015.3
20210613160740 91 0 1.0 1.0 0.00 0.00 0.00 64 1015.1
20210613160236 93 279 2.0 2.0 0.00 0.00 0.00 62 1015.1